Voltar ao catálogo

STARLINK-37599

AtivoComunicaçõesVLEO
NORAD 69360·PAYLOAD·🇺🇸 United States

Lançado Jun 4, 2026 de Cape Canaveral Space Force Station

Loading…

Próximas Passagens (próximas 24 horas)

TLE

AtualizadoSource: CelesTrak SupGP

Época: Sep 15, 2026, 02:59 UTC

1 69360C 26123H   26258.12479167 -.00019088  00000+0 -56401-3 0  2582
2 69360  53.1578 166.7913 0001315  82.1058 349.0978 15.34397709    11

Acompanhe STARLINK-37599 em tempo real com AllMySat

Download on the App Store